�N����,����,�~����,�C��,���x,�C��,����,���ϕ���,�ő�u�ԕ���,�ő厞����,���˗�,�I�_���x,�n�����x,�ő啗���N��,DTYPE
"20/10/12","00:10",0.0,17.6,91.2,1006.9,326.4,1.5,3.2,329.5,0.00,16.2,19.7,"00:09:36",1
"20/10/12","00:20",0.0,17.7,91.4,1007.4,326.1,1.8,3.3,339.2,0.00,16.3,19.8,"00:16:56",1
"20/10/12","00:30",0.0,17.5,91.5,1006.7,333.5,1.3,2.5,342.0,0.00,16.1,19.9,"00:20:24",1
"20/10/12","00:40",0.0,17.3,91.6,1006.7,321.7,1.1,2.0,333.3,0.00,16.0,19.7,"00:39:44",1
"20/10/12","00:50",0.0,17.1,91.8,1006.9,320.3,1.2,2.4,330.3,0.00,15.8,19.7,"00:43:12",1
"20/10/12","01:00",0.0,17.3,92.0,1006.7,328.2,1.6,2.9,329.9,0.00,16.0,19.7,"00:57:20",1
"20/10/12","01:10",0.0,17.3,92.2,1006.7,336.8,1.8,3.3,337.7,0.00,16.1,19.7,"01:07:04",1
"20/10/12","01:20",0.0,17.2,92.4,1006.4,323.8,1.8,3.1,337.5,0.00,16.0,19.7,"01:10:02",1
"20/10/12","01:30",0.0,17.4,92.6,1006.2,325.8,2.0,3.9,329.2,0.00,16.2,19.6,"01:24:00",1
"20/10/12","01:40",0.0,17.1,92.6,1006.2,322.2,1.3,2.2,330.0,0.00,15.9,19.6,"01:33:36",1
"20/10/12","01:50",0.0,17.2,92.9,1006.2,326.8,2.2,3.7,335.5,0.00,16.1,19.6,"01:44:48",1
"20/10/12","02:00",0.0,17.3,92.9,1006.0,327.6,2.5,3.4,339.3,0.00,16.2,19.2,"01:53:20",1
"20/10/12","02:10",0.0,17.2,92.9,1006.0,322.0,1.6,2.8,326.9,0.00,16.1,19.5,"02:09:04",1
"20/10/12","02:20",0.0,17.0,92.9,1006.0,320.9,0.8,1.9,317.8,0.00,15.9,19.4,"02:10:56",1
"20/10/12","02:30",0.0,16.5,93.1,1006.2,39.1,0.2,0.5,275.8,0.00,15.4,19.5,"02:20:08",1
"20/10/12","02:40",0.0,16.0,93.3,1006.0,277.1,0.7,1.1,310.8,0.00,15.0,19.3,"02:30:02",1
"20/10/12","02:50",0.0,15.6,93.5,1006.0,314.7,1.1,1.6,323.2,0.00,14.6,19.2,"02:44:00",1
"20/10/12","03:00",0.0,15.7,93.6,1006.2,304.6,1.0,1.3,322.9,0.00,14.7,19.3,"02:50:08",1
"20/10/12","03:10",0.0,15.5,93.7,1006.2,302.3,0.7,1.2,312.5,0.00,14.5,19.2,"03:07:12",1
"20/10/12","03:20",0.0,15.9,93.9,1006.2,302.0,1.1,2.6,324.3,0.00,15.0,19.2,"03:15:36",1
"20/10/12","03:30",0.0,16.1,93.8,1006.2,288.2,0.8,1.1,264.6,0.00,15.1,19.1,"03:20:16",1
"20/10/12","03:40",0.0,16.3,93.9,1006.4,276.9,1.0,1.4,321.8,0.00,15.4,19.3,"03:30:02",1
"20/10/12","03:50",0.0,16.4,93.9,1006.2,345.2,0.3,1.0,308.2,0.00,15.5,19.2,"03:40:08",1
"20/10/12","04:00",0.0,16.4,94.0,1006.4,296.9,0.5,1.1,327.0,0.00,15.5,19.1,"03:52:16",1
"20/10/12","04:10",0.0,16.4,94.1,1006.7,308.4,0.8,1.6,316.3,0.00,15.5,19.1,"04:09:08",1
"20/10/12","04:20",0.0,16.5,94.1,1006.7,333.9,1.0,2.1,336.8,0.00,15.6,19.1,"04:12:32",1
"20/10/12","04:30",0.0,16.6,94.2,1006.7,295.0,1.0,1.6,328.1,0.00,15.7,19.3,"04:22:24",1
"20/10/12","04:40",0.0,16.8,94.2,1006.9,273.9,0.8,1.7,308.3,0.00,15.9,19.1,"04:38:56",1
"20/10/12","04:50",0.0,16.9,94.3,1006.9,305.1,1.2,2.7,331.7,0.00,16.0,19.2,"04:48:32",1
"20/10/12","05:00",0.0,17.1,94.3,1007.1,323.8,1.2,2.1,339.6,0.00,16.2,19.1,"04:50:08",1
"20/10/12","05:10",0.0,17.3,94.3,1007.4,322.7,2.5,4.1,337.0,0.00,16.4,19.5,"05:09:20",1
"20/10/12","05:20",0.0,17.3,94.2,1007.4,326.3,2.7,4.5,334.3,0.00,16.4,19.3,"05:14:00",1
"20/10/12","05:30",0.0,17.3,94.2,1007.1,326.3,1.7,2.9,338.7,0.00,16.4,19.2,"05:20:48",1
"20/10/12","05:40",0.0,17.4,94.2,1007.4,324.8,1.6,2.6,325.6,0.00,16.5,19.3,"05:31:52",1
"20/10/12","05:50",0.0,17.3,94.2,1007.6,324.2,1.3,1.9,331.9,0.00,16.4,19.1,"05:42:00",1
"20/10/12","06:00",0.0,17.3,94.2,1007.8,328.3,1.5,2.7,326.2,0.00,16.4,19.2,"05:52:40",1
"20/10/12","06:10",0.0,17.3,94.2,1007.4,325.8,1.6,2.4,343.4,0.00,16.4,19.2,"06:03:04",1
"20/10/12","06:20",0.0,17.3,94.2,1007.6,301.3,1.3,2.7,331.1,0.00,16.4,19.4,"06:16:24",1
"20/10/12","06:30",0.0,17.1,94.2,1007.6,274.7,0.7,1.1,281.2,0.00,16.2,19.3,"06:27:52",1
"20/10/12","06:40",0.0,17.0,94.2,1007.6,271.5,1.0,1.6,256.2,0.00,16.1,19.2,"06:32:48",1
"20/10/12","06:50",0.0,16.9,94.3,1007.6,308.3,1.0,2.0,335.9,0.00,16.0,19.2,"06:46:16",1
"20/10/12","07:00",0.0,17.3,94.4,1007.6,327.0,0.7,1.7,340.8,0.01,16.4,19.1,"06:58:56",1
"20/10/12","07:10",0.0,17.9,94.4,1007.4,328.9,1.0,2.1,336.3,0.02,17.0,19.2,"07:02:16",1
"20/10/12","07:20",0.0,18.7,94.0,1007.6,286.9,0.6,1.0,336.7,0.04,17.8,19.2,"07:10:56",1
"20/10/12","07:30",0.0,19.2,93.9,1007.6,287.7,0.8,1.4,263.8,0.06,18.2,19.2,"07:25:36",1
"20/10/12","07:40",0.0,19.5,93.1,1007.8,281.1,0.6,1.8,235.8,0.08,18.4,19.3,"07:38:16",1
"20/10/12","07:50",0.0,19.8,92.5,1007.8,247.8,0.3,1.2,234.3,0.11,18.6,19.6,"07:48:56",1
"20/10/12","08:00",0.0,20.3,92.1,1008.1,250.6,0.6,1.3,225.2,0.13,19.0,19.7,"07:50:16",1
"20/10/12","08:10",0.0,20.4,91.1,1007.8,62.5,0.6,1.8,18.1,0.16,18.9,19.5,"08:08:00",1
"20/10/12","08:20",0.0,20.8,89.6,1007.6,143.4,0.7,1.1,117.4,0.19,19.1,19.7,"08:10:24",1
"20/10/12","08:30",0.0,21.3,87.9,1007.8,125.0,0.6,1.4,113.2,0.21,19.3,19.8,"08:23:12",1
"20/10/12","08:40",0.0,21.8,85.3,1007.4,124.7,0.6,1.6,105.5,0.24,19.3,19.9,"08:38:40",1
"20/10/12","08:50",0.0,22.3,82.8,1007.8,146.6,0.6,1.6,127.1,0.27,19.3,20.2,"08:46:00",1
"20/10/12","09:00",0.0,23.0,80.1,1007.4,299.9,0.5,1.6,29.0,0.29,19.4,20.1,"08:59:28",1
"20/10/12","09:10",0.0,23.2,77.3,1006.9,143.9,0.8,1.8,213.3,0.32,19.0,20.4,"09:09:44",1
"20/10/12","09:20",0.0,23.7,76.0,1006.7,189.1,0.7,1.8,196.6,0.34,19.3,20.5,"09:16:00",1
"20/10/12","09:30",0.0,24.4,73.8,1006.9,246.8,0.3,1.4,132.7,0.36,19.5,20.6,"09:25:20",1
"20/10/12","09:40",0.0,24.8,72.1,1006.2,169.8,0.6,1.3,118.9,0.38,19.5,20.8,"09:31:52",1
"20/10/12","09:50",0.0,25.0,70.8,1005.5,118.2,0.8,2.1,118.4,0.40,19.4,21.1,"09:46:16",1
"20/10/12","10:00",0.0,25.1,69.5,1005.5,164.3,0.7,2.0,107.8,0.42,19.2,21.3,"09:54:48",1
"20/10/12","10:10",0.0,25.4,68.3,1005.7,175.2,0.8,2.6,199.1,0.44,19.2,21.5,"10:08:40",1
"20/10/12","10:20",0.0,25.7,67.8,1006.0,190.9,1.1,2.4,228.6,0.45,19.3,21.7,"10:17:52",1
"20/10/12","10:30",0.0,25.8,67.4,1005.5,149.1,1.0,2.4,120.4,0.47,19.3,21.9,"10:24:08",1
"20/10/12","10:40",0.0,25.5,66.6,1005.5,184.2,1.3,2.7,126.2,0.48,18.9,22.2,"10:32:24",1
"20/10/12","10:50",0.0,26.1,65.3,1005.5,184.6,0.7,1.8,101.2,0.49,19.1,22.3,"10:44:24",1
"20/10/12","11:00",0.0,26.3,62.9,1005.2,216.3,1.3,4.1,222.1,0.50,18.7,22.5,"10:56:40",1
"20/10/12","11:10",0.0,26.5,63.7,1005.5,173.5,1.3,3.4,205.3,0.51,19.1,22.7,"11:06:40",1
"20/10/12","11:20",0.0,26.5,64.0,1005.0,202.9,1.6,5.1,215.7,0.52,19.2,22.9,"11:14:32",1
"20/10/12","11:30",0.0,26.7,62.3,1005.2,196.8,1.3,3.1,217.9,0.55,18.9,23.1,"11:26:00",1
"20/10/12","11:40",0.0,27.1,60.7,1004.8,241.0,1.0,2.9,233.8,0.55,18.9,23.3,"11:30:16",1
"20/10/12","11:50",0.0,27.2,60.1,1004.8,211.6,1.1,3.2,222.3,0.55,18.8,23.5,"11:46:48",1
"20/10/12","12:00",0.0,27.3,58.8,1005.0,194.3,1.1,3.6,220.8,0.54,18.6,23.7,"11:58:08",1
"20/10/12","12:10",0.0,27.3,57.7,1005.0,218.3,1.6,3.1,216.7,0.54,18.3,23.8,"12:00:32",1
"20/10/12","12:20",0.0,27.8,58.9,1004.8,191.2,1.0,3.1,207.3,0.45,19.1,24.0,"12:10:24",1
"20/10/12","12:30",0.0,28.0,56.8,1004.8,202.8,1.0,2.8,255.3,0.54,18.7,24.2,"12:27:12",1
"20/10/12","12:40",0.0,27.9,58.7,1004.8,174.2,1.0,2.5,197.7,0.37,19.1,24.2,"12:31:44",1
"20/10/12","12:50",0.0,26.9,56.9,1004.3,164.8,1.1,4.2,208.8,0.26,17.7,24.3,"12:47:12",1
"20/10/12","13:00",0.0,27.1,58.6,1003.8,208.8,1.7,3.1,222.6,0.42,18.3,24.5,"12:51:52",1
"20/10/12","13:10",0.0,28.1,57.3,1003.8,161.6,1.1,3.4,205.7,0.50,18.9,24.3,"13:05:04",1
"20/10/12","13:20",0.0,28.3,53.9,1004.1,170.2,1.0,3.1,222.4,0.50,18.1,24.6,"13:15:28",1
"20/10/12","13:30",0.0,29.0,53.1,1004.3,160.8,1.1,3.1,183.6,0.51,18.5,24.9,"13:20:02",1
"20/10/12","13:40",0.0,28.7,53.7,1004.1,236.7,1.5,3.4,212.5,0.49,18.4,25.0,"13:31:52",1
"20/10/12","13:50",0.0,29.2,51.5,1004.3,25.5,0.7,1.8,353.7,0.46,18.2,24.9,"13:42:08",1
"20/10/12","14:00",0.0,29.2,52.1,1004.3,201.7,1.1,2.4,211.5,0.42,18.4,25.3,"13:56:48",1
"20/10/12","14:10",0.0,29.3,50.5,1004.3,159.9,0.6,1.3,84.8,0.41,18.0,25.1,"14:06:48",1
"20/10/12","14:20",0.0,29.1,50.5,1004.1,349.9,0.7,2.0,347.3,0.28,17.8,25.2,"14:14:24",1
"20/10/12","14:30",0.0,29.0,52.6,1003.6,52.3,0.8,2.0,32.3,0.38,18.4,25.2,"14:25:36",1
"20/10/12","14:40",0.0,29.3,50.0,1003.8,66.9,0.8,2.4,356.7,0.38,17.8,25.3,"14:30:32",1
"20/10/12","14:50",0.0,29.0,50.2,1003.8,336.1,1.1,2.7,348.9,0.25,17.6,25.5,"14:47:44",1
"20/10/12","15:00",0.0,29.0,51.0,1003.4,18.9,1.0,2.5,341.3,0.34,17.9,25.4,"14:52:16",1
"20/10/12","15:10",0.0,29.1,50.5,1003.1,52.9,0.7,2.7,6.0,0.30,17.8,25.3,"15:07:52",1
"20/10/12","15:20",0.0,29.0,50.0,1003.6,8.2,0.7,1.7,2.3,0.25,17.6,25.4,"15:17:52",1
"20/10/12","15:30",0.0,28.8,49.7,1003.4,354.5,1.0,2.1,9.4,0.23,17.3,25.4,"15:25:04",1
"20/10/12","15:40",0.0,28.4,50.9,1002.9,349.4,1.1,2.5,339.6,0.14,17.3,25.5,"15:34:48",1
"20/10/12","15:50",0.0,27.7,53.7,1002.4,313.3,0.7,2.0,349.9,0.09,17.5,25.1,"15:47:12",1
"20/10/12","16:00",0.0,27.7,54.9,1002.6,292.8,1.0,2.7,335.4,0.12,17.9,25.1,"15:51:28",1
"20/10/12","16:10",0.0,27.7,54.2,1002.6,284.6,1.1,2.6,337.9,0.11,17.7,25.2,"16:05:20",1
"20/10/12","16:20",0.0,27.4,55.3,1002.4,272.4,1.2,2.5,316.1,0.09,17.7,25.2,"16:12:56",1
"20/10/12","16:30",0.0,27.0,56.3,1002.4,307.0,1.1,2.2,7.4,0.04,17.6,24.9,"16:26:32",1
"20/10/12","16:40",0.0,26.7,59.5,1002.9,337.7,0.8,2.1,345.6,0.03,18.2,25.0,"16:30:16",1
"20/10/12","16:50",0.0,26.0,62.5,1003.4,338.2,1.6,3.1,340.7,0.02,18.3,24.8,"16:49:20",1
"20/10/12","17:00",0.0,25.3,65.5,1003.6,342.0,2.1,4.3,344.2,0.01,18.4,24.3,"16:57:28",1
"20/10/12","17:10",0.0,24.6,67.8,1003.6,336.6,2.7,5.1,11.3,0.00,18.3,24.4,"17:03:04",1
"20/10/12","17:20",0.0,23.9,69.4,1004.3,344.4,3.0,6.8,329.8,0.00,18.0,24.2,"17:15:28",1
"20/10/12","17:30",0.0,23.3,71.0,1004.1,344.6,3.4,7.5,345.9,0.00,17.8,24.1,"17:23:04",1
"20/10/12","17:40",0.0,22.8,72.6,1004.8,338.3,3.1,5.8,350.2,0.00,17.7,23.8,"17:32:24",1
"20/10/12","17:50",0.0,22.6,73.5,1004.8,334.7,3.6,8.5,343.0,0.00,17.7,23.8,"17:47:52",1
"20/10/12","18:00",0.0,22.3,74.1,1004.8,332.3,3.6,7.1,340.5,0.00,17.5,23.7,"17:57:52",1
"20/10/12","18:10",0.0,22.2,74.5,1005.0,338.0,3.5,6.2,355.0,0.00,17.5,23.5,"18:06:24",1
"20/10/12","18:20",0.0,22.0,74.7,1005.5,337.2,3.5,8.1,328.3,0.00,17.3,23.3,"18:10:02",1
"20/10/12","18:30",0.0,21.9,74.9,1005.7,333.8,3.2,7.9,322.8,0.00,17.3,23.3,"18:23:20",1
"20/10/12","18:40",0.0,21.9,74.9,1006.2,326.6,2.6,5.6,347.0,0.00,17.3,23.2,"18:33:20",1
"20/10/12","18:50",0.0,21.9,74.9,1006.4,331.7,2.5,4.2,334.4,0.00,17.3,23.0,"18:42:40",1
"20/10/12","19:00",0.0,21.8,75.2,1006.4,332.4,2.7,4.7,350.2,0.00,17.3,23.1,"18:53:20",1
"20/10/12","19:10",0.0,21.7,75.6,1006.9,328.9,2.7,4.5,352.1,0.00,17.2,22.7,"19:04:16",1
"20/10/12","19:20",0.0,21.5,76.1,1006.7,335.5,2.0,4.2,319.0,0.00,17.2,22.7,"19:16:56",1
"20/10/12","19:30",0.0,21.3,76.6,1006.7,315.9,1.1,3.2,338.6,0.00,17.1,22.5,"19:20:48",1
"20/10/12","19:40",0.0,20.9,77.0,1006.2,305.4,0.8,2.2,335.6,0.00,16.8,22.5,"19:30:08",1
"20/10/12","19:50",0.0,20.5,78.3,1006.7,300.9,0.7,1.6,329.7,0.00,16.6,22.2,"19:46:08",1
"20/10/12","20:00",0.0,20.5,79.4,1006.7,311.3,1.1,1.7,317.4,0.00,16.9,22.3,"19:51:04",1
"20/10/12","20:10",0.0,20.5,80.1,1006.9,341.5,1.1,2.4,346.7,0.00,17.0,22.3,"20:05:36",1
"20/10/12","20:20",0.0,20.5,80.7,1006.7,329.4,1.2,3.5,344.7,0.00,17.1,22.4,"20:17:20",1
"20/10/12","20:30",0.0,20.6,80.8,1006.9,314.4,1.1,2.1,328.0,0.00,17.2,22.1,"20:27:28",1
"20/10/12","20:40",0.0,20.8,80.5,1007.1,302.7,1.6,3.9,344.0,0.00,17.4,22.2,"20:35:28",1
"20/10/12","20:50",0.0,20.9,80.0,1006.7,306.1,1.3,2.5,318.3,0.00,17.4,22.1,"20:40:24",1
"20/10/12","21:00",0.0,20.9,79.7,1007.1,307.4,1.5,2.7,326.3,0.00,17.3,22.1,"20:50:40",1
"20/10/12","21:10",0.0,20.9,79.5,1007.4,324.5,1.8,4.0,326.2,0.00,17.3,22.0,"21:08:40",1
"20/10/12","21:20",0.0,21.1,79.1,1007.4,328.3,2.0,3.5,334.3,0.00,17.4,22.0,"21:13:52",1
"20/10/12","21:30",0.0,21.0,78.9,1007.6,320.9,1.5,2.2,329.6,0.00,17.2,22.0,"21:21:20",1
"20/10/12","21:40",0.0,20.8,79.0,1006.9,281.9,0.8,1.4,325.7,0.00,17.1,21.8,"21:30:48",1
"20/10/12","21:50",0.0,20.6,79.3,1007.1,306.1,1.0,1.8,316.6,0.00,16.9,21.7,"21:48:24",1
"20/10/12","22:00",0.0,20.4,79.8,1007.1,318.3,1.1,2.4,317.1,0.00,16.8,21.7,"21:59:20",1
"20/10/12","22:10",0.0,20.4,80.2,1007.4,304.9,1.3,2.7,317.5,0.00,16.9,21.8,"22:01:28",1
"20/10/12","22:20",0.0,20.1,80.6,1007.1,311.7,1.0,1.6,325.0,0.00,16.7,21.6,"22:14:16",1
"20/10/12","22:30",0.0,20.1,81.4,1007.4,323.2,1.7,3.4,326.0,0.00,16.9,21.6,"22:24:40",1
"20/10/12","22:40",0.0,20.2,81.4,1007.6,326.1,2.1,4.5,340.5,0.00,17.0,21.5,"22:30:48",1
"20/10/12","22:50",0.0,20.5,81.0,1007.8,327.5,2.3,4.0,337.5,0.00,17.2,21.5,"22:48:56",1
"20/10/12","23:00",0.0,20.6,80.8,1007.4,330.9,2.1,3.2,331.0,0.00,17.2,21.5,"22:50:56",1
"20/10/12","23:10",0.0,20.6,80.6,1007.6,305.5,1.5,2.5,336.6,0.00,17.2,21.4,"23:00:40",1
"20/10/12","23:20",0.0,20.6,80.5,1007.4,325.8,1.6,3.3,339.7,0.00,17.2,21.5,"23:17:12",1
"20/10/12","23:30",0.0,20.7,80.2,1007.6,325.8,1.7,4.5,342.1,0.00,17.2,21.4,"23:23:36",1
"20/10/12","23:40",0.0,20.6,80.2,1007.4,314.2,1.0,3.2,338.5,0.00,17.1,21.5,"23:38:56",1
"20/10/12","23:50",0.0,20.5,80.5,1007.1,282.4,1.0,1.8,335.0,0.00,17.1,21.3,"23:49:04",1
"20/10/12","24:00",0.0,20.4,80.9,1007.4,311.5,1.0,1.9,335.6,0.00,17.1,21.3,"23:50:40",1
